Weather History for Farmington, MO

Change the Weather History Date:

Tuesday, December 25, 2012

  Actual Average Record
Temperature  
Mean Temperature 26 °F -  
Max Temperature 32 °F 39 °F 57 °F (2011)
Min Temperature 21 °F 23 °F 3 °F (2000)
Degree Days  
Heating Degree Days 38    
Moisture  
Dew Point 21 °F    
Average Humidity 76    
Maximum Humidity 86    
Minimum Humidity 64    
Precipitation  
Precipitation 0.00 in - - ()
Sea Level Pressure  
Sea Level Pressure 30.07 in    
Wind  
Wind Speed 11 mph (NNE)    
Max Wind Speed 24 mph    
Max Gust Speed 32 mph    
Visibility 8 miles    
Events      
Averages and records for this station are not official NWS values.
T = Trace of Precipitation, MM = Missing Value Source: NWS Daily Summary

Daily Weather History Graph

Daily Weather History Graph

Search for Another Location

Airport:

Trip Planner

Search our weather history database for the weather conditions in past years. The results will help you decide how hot, cold, wet, or windy it might be!

Date:

Astronomy

Dec. 25, 2012 Rise Set
Actual Time 7:15 AM CST 4:48 PM CST
Civil Twilight 6:45 AM CST 5:18 PM CST
Nautical Twilight 6:13 AM CST 5:51 PM CST
Astronomical Twilight 5:41 AM CST 6:23 PM CST
Moon 2:56 PM CST (12/25) 4:48 AM CST (12/25)
Length of Visible Light 10h 32m
Length of Day
9h 33m
Waxing Gibbous, 94% of the Moon is Illuminated
Dec 25
Waxing Gibbous
Dec 28
Full
Jan 4
Last Quarter
Jan 11
New
Jan 18
First Quarter

Hourly Weather History & Observations

Time (CST) Temp. Windchill Dew Point Humidity Pressure Visibility Wind Dir Wind Speed Gust Speed Precip Events Conditions
12:15 AM 24.8 °F 16.1 °F 19.4 °F 80% 30.10 in 6.0 mi NNE 8.1 mph - N/A   Overcast
12:35 AM 24.8 °F 16.1 °F 19.4 °F 80% 30.09 in 5.0 mi NNE 8.1 mph - N/A   Overcast
12:55 AM 24.8 °F 14.6 °F 19.4 °F 80% 30.09 in 6.0 mi NNE 10.4 mph - N/A   Overcast
1:15 AM 24.8 °F 15.3 °F 19.4 °F 80% 30.09 in 7.0 mi NNE 9.2 mph - N/A   Overcast
1:35 AM 24.8 °F 14.6 °F 19.4 °F 80% 30.10 in 7.0 mi North 10.4 mph - N/A   Overcast
1:55 AM 24.8 °F 16.1 °F 19.4 °F 80% 30.11 in 6.0 mi North 8.1 mph - N/A   Overcast
2:15 AM 24.8 °F 14.0 °F 17.6 °F 74% 30.11 in 7.0 mi NNE 11.5 mph - N/A   Overcast
2:35 AM 23.0 °F 13.1 °F 17.6 °F 80% 30.12 in 7.0 mi NNE 9.2 mph - N/A   Overcast
2:55 AM 23.0 °F 13.1 °F 17.6 °F 80% 30.12 in 8.0 mi NNE 9.2 mph - N/A   Overcast
3:15 AM 23.0 °F 10.6 °F 15.8 °F 74% 30.11 in 9.0 mi NNE 13.8 mph 17.3 mph N/A   Overcast
3:35 AM 23.0 °F 12.4 °F 15.8 °F 74% 30.13 in 9.0 mi NNE 10.4 mph - N/A   Mostly Cloudy
3:55 AM 23.0 °F 14.7 °F 15.8 °F 74% 30.12 in 9.0 mi NNE 6.9 mph - N/A   Mostly Cloudy
4:15 AM 23.0 °F 13.9 °F 15.8 °F 74% 30.11 in 9.0 mi NNE 8.1 mph - N/A   Overcast
4:35 AM 23.0 °F 13.9 °F 15.8 °F 74% 30.12 in 8.0 mi NNE 8.1 mph - N/A   Overcast
4:55 AM 23.0 °F 13.9 °F 15.8 °F 74% 30.11 in 8.0 mi NNE 8.1 mph - N/A   Scattered Clouds
5:15 AM 23.0 °F 13.1 °F 17.6 °F 80% 30.11 in 8.0 mi NNE 9.2 mph - N/A   Clear
5:35 AM 23.0 °F 14.7 °F 15.8 °F 74% 30.12 in 8.0 mi NNE 6.9 mph - N/A   Clear
5:55 AM 21.2 °F 10.1 °F 15.8 °F 80% 30.11 in 8.0 mi NNE 10.4 mph - N/A   Clear
6:15 AM 21.2 °F 10.9 °F 17.6 °F 86% 30.08 in 8.0 mi NNE 9.2 mph - N/A   Scattered Clouds
6:35 AM 21.2 °F 12.6 °F 17.6 °F 86% 30.08 in 8.0 mi NNE 6.9 mph - N/A   Overcast
6:55 AM 23.0 °F 12.4 °F 17.6 °F 80% 30.10 in 8.0 mi North 10.4 mph - N/A   Overcast
7:15 AM 23.0 °F 14.7 °F 17.6 °F 80% 30.13 in 7.0 mi NNE 6.9 mph - N/A   Overcast
7:35 AM 23.0 °F 14.7 °F 17.6 °F 80% 30.15 in 6.0 mi NE 6.9 mph - N/A   Mostly Cloudy
7:55 AM 23.0 °F 15.8 °F 17.6 °F 80% 30.16 in 6.0 mi North 5.8 mph - N/A   Scattered Clouds
8:15 AM 23.0 °F 15.8 °F 19.4 °F 86% 30.16 in 7.0 mi NNE 5.8 mph - N/A   Clear
8:35 AM 24.8 °F 15.3 °F 17.6 °F 74% 30.16 in 7.0 mi North 9.2 mph - N/A   Clear
8:55 AM 24.8 °F 16.1 °F 19.4 °F 80% 30.19 in 7.0 mi NNE 8.1 mph - N/A   Clear
9:15 AM 24.8 °F 15.3 °F 19.4 °F 80% 30.20 in 7.0 mi NNE 9.2 mph - N/A   Scattered Clouds
9:35 AM 26.6 °F 16.8 °F 19.4 °F 74% 30.19 in 7.0 mi NNE 10.4 mph - N/A   Mostly Cloudy
9:55 AM 26.6 °F 19.1 °F 19.4 °F 74% 30.19 in 7.0 mi NNE 6.9 mph - N/A   Overcast
10:15 AM 26.6 °F 16.2 °F 21.2 °F 80% 30.18 in 7.0 mi NNE 11.5 mph - N/A   Overcast
10:35 AM 28.4 °F 18.5 °F 21.2 °F 74% 30.17 in 7.0 mi NE 11.5 mph - N/A   Overcast
10:55 AM 28.4 °F 17.5 °F 21.2 °F 74% 30.15 in 7.0 mi NE 13.8 mph - N/A   Overcast
11:15 AM 28.4 °F 18.0 °F 23.0 °F 80% 30.14 in 7.0 mi NNE 12.7 mph - N/A   Overcast
11:35 AM 28.4 °F 18.0 °F 23.0 °F 80% 30.10 in 7.0 mi NE 12.7 mph - N/A   Overcast
11:55 AM 28.4 °F 17.0 °F 23.0 °F 80% 30.10 in 7.0 mi NE 15.0 mph 21.9 mph N/A   Overcast
12:15 PM 30.2 °F 19.3 °F 23.0 °F 75% 30.09 in 7.0 mi NE 15.0 mph - N/A   Overcast
12:35 PM 30.2 °F 20.2 °F 24.8 °F 80% 30.09 in 7.0 mi NNE 12.7 mph 17.3 mph N/A   Overcast
12:55 PM 30.2 °F 20.2 °F 24.8 °F 80% 30.06 in 8.0 mi NE 12.7 mph 19.6 mph N/A   Overcast
1:15 PM 30.2 °F 19.3 °F 24.8 °F 80% 30.05 in 8.0 mi NE 15.0 mph 19.6 mph N/A   Overcast
1:35 PM 32.0 °F 22.5 °F 24.8 °F 75% 30.04 in 9.0 mi NE 12.7 mph 19.6 mph N/A   Overcast
1:55 PM 32.0 °F 22.5 °F 24.8 °F 75% 30.03 in 10.0 mi NE 12.7 mph 23.0 mph N/A   Overcast
2:15 PM 32.0 °F 20.8 °F 23.0 °F 69% 30.03 in 10.0 mi NE 17.3 mph 25.3 mph N/A   Overcast
2:35 PM 32.0 °F 20.5 °F 23.0 °F 69% 30.03 in 10.0 mi NE 18.4 mph 27.6 mph N/A   Overcast
2:55 PM 32.0 °F 21.2 °F 23.0 °F 69% 30.03 in 10.0 mi NE 16.1 mph 24.2 mph N/A   Overcast
3:15 PM 32.0 °F 20.8 °F 24.8 °F 75% 30.03 in 10.0 mi NE 17.3 mph 24.2 mph N/A   Overcast
3:35 PM 32.0 °F 22.5 °F 24.8 °F 75% 30.05 in 10.0 mi NNE 12.7 mph 20.7 mph N/A   Overcast
3:55 PM 32.0 °F 22.1 °F 24.8 °F 75% 30.07 in 10.0 mi NE 13.8 mph 19.6 mph N/A   Overcast
4:15 PM 32.0 °F 22.5 °F 23.0 °F 69% 30.06 in 10.0 mi NNE 12.7 mph 19.6 mph N/A   Overcast
4:35 PM 32.0 °F 22.5 °F 23.0 °F 69% 30.06 in 10.0 mi NNE 12.7 mph 18.4 mph N/A   Overcast
4:55 PM 32.0 °F 21.2 °F 23.0 °F 69% 30.06 in 10.0 mi NE 16.1 mph 20.7 mph N/A   Overcast
5:15 PM 32.0 °F 21.2 °F 23.0 °F 69% 30.04 in 10.0 mi NE 16.1 mph 21.9 mph N/A   Overcast
5:35 PM 32.0 °F 22.5 °F 23.0 °F 69% 30.02 in 10.0 mi NE 12.7 mph 21.9 mph N/A   Overcast
5:55 PM 32.0 °F 18.9 °F 23.0 °F 69% 30.02 in 10.0 mi NE 24.2 mph 28.8 mph N/A   Overcast
6:15 PM 32.0 °F 19.8 °F 21.2 °F 64% 30.00 in 10.0 mi NE 20.7 mph 32.2 mph N/A   Overcast
6:35 PM 32.0 °F 20.1 °F 21.2 °F 64% 30.01 in 10.0 mi NE 19.6 mph 31.1 mph N/A   Overcast
6:55 PM 32.0 °F 19.2 °F 21.2 °F 64% 30.01 in 10.0 mi NNE 23.0 mph 28.8 mph N/A   Overcast
7:15 PM 32.0 °F 22.5 °F 23.0 °F 69% 30.00 in 10.0 mi NE 12.7 mph 25.3 mph N/A   Overcast
7:35 PM 32.0 °F 21.2 °F 23.0 °F 69% 30.00 in 10.0 mi NE 16.1 mph 29.9 mph N/A   Overcast
7:55 PM 32.0 °F 19.8 °F 23.0 °F 69% 29.99 in 10.0 mi NNE 20.7 mph 26.5 mph N/A   Overcast
8:15 PM 32.0 °F 21.6 °F 23.0 °F 69% 29.99 in 10.0 mi NNE 15.0 mph 26.5 mph N/A   Overcast
8:35 PM 32.0 °F 20.8 °F 23.0 °F 69% 29.98 in 10.0 mi NNE 17.3 mph 27.6 mph N/A   Overcast
8:55 PM 32.0 °F 21.2 °F 23.0 °F 69% 29.97 in 10.0 mi NNE 16.1 mph 25.3 mph N/A   Overcast
9:15 PM 32.0 °F 20.8 °F 23.0 °F 69% 29.96 in 10.0 mi NNE 17.3 mph 27.6 mph N/A   Overcast
9:35 PM 30.2 °F 18.9 °F 23.0 °F 75% 29.95 in 10.0 mi NNE 16.1 mph 25.3 mph N/A   Overcast
9:55 PM 30.2 °F 18.5 °F 24.8 °F 80% 29.94 in 10.0 mi North 17.3 mph 24.2 mph N/A   Overcast
10:15 PM 30.2 °F 19.3 °F 24.8 °F 80% 29.93 in 10.0 mi North 15.0 mph 27.6 mph N/A   Overcast
10:35 PM 30.2 °F 18.9 °F 24.8 °F 80% 29.92 in 10.0 mi North 16.1 mph 28.8 mph N/A   Overcast
10:55 PM 30.2 °F 18.9 °F 24.8 °F 80% 29.91 in 10.0 mi North 16.1 mph 23.0 mph N/A   Overcast
11:15 PM 30.2 °F 19.8 °F 24.8 °F 80% 29.91 in 10.0 mi North 13.8 mph 21.9 mph N/A   Overcast
11:35 PM 30.2 °F 18.9 °F 24.8 °F 80% 29.90 in 10.0 mi North 16.1 mph 24.2 mph N/A   Overcast
11:55 PM 30.2 °F 19.3 °F 24.8 °F 80% 29.89 in 8.0 mi North 15.0 mph 27.6 mph N/A   Overcast